Notices

What's New in latest Release from April 7th, 2021:

- Updated Glossary, including Speed of Maximum Gust, and Total Hourly Precipitation

- Updated national and regional climate services offices contacts and prices information

- Addition of station inventory lists for 1981-2010, 1971-2000, and 1961-1990 Normals.

If you haven't already, please take our survey and provide feedback about our website: https://eccc.sondage-survey.ca/f/LanguageSelection.aspx?s=442ca660-fcf1-47c0-95a9-59707d6fd709

Hourly Data Report for November 11, 2019

QUALICUM BEACH AIRPORT
BRITISH COLUMBIA
Current Station Operator: ECCC - MSC

49°20'14.000" N
124°23'38.000" W
58.20 m
1026562
71766
VOQ

Download Data

Hourly Data (November 2019)
Hourly Data Report for November 11, 2019
TIME
LST
Temp Definition
°C
Dew Point Definition
°C
Rel Hum Definition
%
Precip. Amount Definition
mm

Wind Dir Definition
10's deg

Wind Spd Definition
km/h
Visibility Definition
km
Stn Press Definition
kPa
Hmdx Definition


Wind Chill Definition


Weather Definition


00:00 4.4 4.2 98 0.0 0 1   102.07     LegendNANA
01:00 4.7 4.4 98 0.0   0   102.11     LegendNANA
02:00 5.3 5.1 98 0.0 0 1   102.06     LegendNANA
03:00 5.3 5.0 98 0.0   0   102.07     LegendNANA
04:00 5.4 5.1 98 0.0 0 1   102.04     LegendNANA
05:00 6.2 5.9 98 0.0 25 2   102.05     LegendNANA
06:00 6.1 5.8 98 0.0 0 1   102.02     LegendNANA
07:00 6.6 6.3 98 0.0 23 2   101.99     LegendNANA
08:00 6.8 6.5 98 0.0   0   101.98     LegendNANA
09:00 7.5 7.2 98 0.0   0   101.98     LegendNANA
10:00 7.9 7.6 98 0.0 15 3   101.94     LegendNANA
11:00 8.3 7.9 98 0.0 12 4   101.90     LegendNANA
12:00 8.4 7.9 97 0.2 10 4   101.82     LegendNANA
13:00 8.7 8.0 95 0.0 0 1   101.78     LegendNANA
14:00 8.8 7.9 94 0.0 30 5   101.76     LegendNANA
15:00 8.6 7.7 94 0.0 30 8   101.76     LegendNANA
16:00 8.4 7.5 95 0.1 27 2   101.71     LegendNANA
17:00 7.9 7.3 96 0.0 17 2   101.54     LegendNANA
18:00 7.6 7.1 96 0.1 31 4   101.50     LegendNANA
19:00 7.7 7.2 96 0.0 28 5   101.54     LegendNANA
20:00 7.5 7.0 97 0.0 12 2   101.45     LegendNANA
21:00 7.6 7.1 97 0.1 0 1   101.52     LegendNANA
22:00 7.5 7.0 97 0.5 28 1   101.43     LegendNANA
23:00 7.3 6.9 97 0.3   0   101.39     LegendNANA

Notes on Data Quality.

Legend

  • E = Estimated
  • M = Missing
  • NA = Not Available*
  • [empty] = Indicates an unobserved value
Date modified: